Regional Weather Roundup
Issued by NWS State College, PA

Home | Current Version | Previous Version | Text Only | Print | Product List | Glossary On
Versions: 1 2 3 4 5 6 7 8 9 10 11 12 13 14 15 16 17 18 19 20 21 22 23 24 25 26 27 28 29 30 31 32 33 34 35 36 37 38 39 40 41 42 43 44 45 46 47 48 49 50
000
ASUS41 KCTP 301610
RWRCTP

REGIONAL WEATHER ROUNDUP
NATIONAL WEATHER SERVICE STATE COLLEGE PA
1200 PM EDT SAT APR 30 2016

Note: "fair" indicates few or no clouds below 12,000 feet with no
significant weather and/or obstructions to visibility.

* = STATION THAT DOES NOT REPORT PRECIPITATION /E.G. RAIN...SNOW...ETC/
    THUNDER OR FOG.

PAZ002>004-007>009-013>016-020>023-029>032-301700-
WESTERN PENNSYLVANIA

CITY           SKY/WX    TMP DP  RH WIND       PRES   REMARKS
ERIE           CLOUDY    52  43  71 NE12      30.14F
MEADVILLE      CLOUDY    50  43  77 VRB3      30.12F
FRANKLIN*      CLOUDY    52  43  71 E8        30.15S
NEW CASTLE     PTSUNNY   58  46  64 E7        30.11F
BEAVER COUNTY  PTSUNNY   59  48  67 SE8       30.10F
BUTLER*        MOSUNNY   57  46  67 SE6       30.12F
PITTSBURGH INT CLOUDY    60  45  57 MISG      30.08F
PITTSBURGH     SUNNY     62  47  57 VRB7      30.08F
INDIANA*       PTSUNNY   57  46  67 E9        30.15F
LATROBE        MOSUNNY   63  48  59 E9        30.10F
WASHINGTON CO* MOSUNNY   59  48  67 CALM      30.09F
$$

PAZ004>006-010>012-017>019-024>028-033>037-041-042-045-046-049>053-301700-
CENTRAL PENNSYLVANIA

CITY           SKY/WX    TMP DP  RH WIND       PRES   REMARKS
BRADFORD       CLOUDY    46  39  76 SE8       30.16F
DUBOIS         CLOUDY    49  41  74 E9        30.14S
CLEARFIELD     CLOUDY    51  43  74 E9        30.16S
JOHNSTOWN      CLOUDY    50  42  74 SE8       30.12S
ALTOONA        CLOUDY    47  45  93 E7        30.16F FOG
STATE COLLEGE  CLOUDY    50  43  76 N6        30.17S
WILLIAMSPORT   CLOUDY    53  41  63 CALM      30.19F
SELINSGROVE    CLOUDY    54  42  64 VRB3      30.20F
FT INDIANTOWN  PTSUNNY   54  42  65 VRB3      30.20S
CAPITAL CITY   CLOUDY    55  44  66 SE6       30.20S
HARRISBURG     CLOUDY    55  45  68 S5        30.20S
YORK           CLOUDY    52  45  77 E7        30.20S
$$

PAZ038>040-043-044-047-048-054-055-060>062-067>071-301700-
EASTERN PENNSYLVANIA

CITY           SKY/WX    TMP DP  RH WIND       PRES   REMARKS
SCRANTON       PTSUNNY   53  41  63 CALM      30.18F
MOUNT POCONO   CLOUDY    49  37  63 CALM      30.17S
ALLENTOWN      PTSUNNY   57  42  57 SE6       30.20F
QUAKERTOWN*    CLOUDY    54  41  62 CALM      30.21S
READING        CLOUDY    54  40  59 NE7       30.19S
LANCASTER      CLOUDY    54  43  66 E7        30.20F
COATESVILLE    CLOUDY    54  41  62 MISG      30.21S
POTTSTOWN      PTSUNNY   54  42  64 E7        30.21F
BLUE BELL      CLOUDY    54  41  62 CALM      30.20S
DOYLESTOWN     CLOUDY    53  40  61 CALM      30.20F
WILLOW GROVE   NOT AVBL
NORTH PHILA    PTSUNNY   59  43  55 NE7       30.22F
PHILADELPHIA   PTSUNNY   59  40  49 E6        30.22S
$$




USA.gov is the U.S. government's official web portal to all federal, state and local government web resources and services.